Stanley, ND

11:14 AM CDT on July 23, 2017 (GMT -0500)
Stanley

Weather History for K08D - September, 2013

Change the Weather History Date:

Saturday, September 7, 2013

  Actual Average (KMIB) Record (KMIB)
Temperature  
Mean Temperature 66 °F -  
Max Temperature 73 °F 72 °F 84 °F (1997)
Min Temperature 59 °F 48 °F 35 °F (2004)
Cooling Degree Days 1    
Growing Degree Days 16 (Base 50)    
Moisture  
Dew Point 60 °F    
Average Humidity 90    
Maximum Humidity 100    
Minimum Humidity 50    
Precipitation  
Precipitation 1.17 in - - ()
Sea Level Pressure  
Sea Level Pressure 30.11 in    
Wind  
Wind Speed 9 mph (ENE)    
Max Wind Speed 17 mph    
Max Gust Speed 29 mph    
Visibility 9 miles    
Events Rain , Thunderstorm    
Averages and records for this station are not official NWS values.
T = Trace of Precipitation, MM = Missing Value Source: NWS Daily Summary

Daily Weather History Graph

Daily Weather History Graph

Search for Another Location

Airport or City:

Trip Planner

Search our weather history database for the weather conditions in past years. The results will help you decide how hot, cold, wet, or windy it might be!

Date:

Astronomy

Sep. 07, 2013 Rise Set
Actual Time 7:15 AM CDT 8:18 PM CDT
Civil Twilight 6:44 AM CDT 8:49 PM CDT
Nautical Twilight 6:05 AM CDT 9:28 PM CDT
Astronomical Twilight 5:24 AM CDT 10:08 PM CDT
Moon 9:47 AM CDT (9/7) 9:00 PM CDT (9/7)
Length of Visible Light 14h 05m
Length of Day
13h 02m
Waxing Crescent, 5% of the Moon is Illuminated
Sep 7
Waxing Crescent
Sep 12
First Quarter
Sep 19
Full
Sep 26
Last Quarter
Oct 4
New

Hourly Weather History & Observations

Time (CDT) Temp. Dew Point Humidity Pressure Visibility Wind Dir Wind Speed Gust Speed Precip Events Conditions
12:15 AM 71.6 °F 69.8 °F 94% 30.01 in 10.0 mi NE 6.9 mph - N/A   Unknown
12:35 AM 69.8 °F 69.8 °F 100% 30.01 in 10.0 mi NE 8.1 mph - N/A   Clear
12:55 AM 68.0 °F 68.0 °F 100% 30.02 in 10.0 mi NE 9.2 mph - N/A   Unknown
1:15 AM 68.0 °F 68.0 °F 100% 30.03 in 10.0 mi NE 10.4 mph - N/A   Unknown
1:35 AM 68.0 °F 68.0 °F 100% 30.03 in 10.0 mi NE 10.4 mph 17.3 mph N/A   Unknown
1:55 AM 68.0 °F 68.0 °F 100% 30.04 in 10.0 mi NE 9.2 mph - N/A   Clear
2:15 AM 66.2 °F 66.2 °F 100% 30.05 in 10.0 mi ENE 12.7 mph 19.6 mph N/A   Clear
2:35 AM 66.2 °F 64.4 °F 94% 30.06 in 10.0 mi NE 11.5 mph 18.4 mph N/A   Unknown
2:55 AM 64.4 °F 64.4 °F 100% 30.06 in 10.0 mi NE 9.2 mph 16.1 mph N/A   Unknown
3:15 AM 64.4 °F 64.4 °F 100% 30.06 in 10.0 mi NE 8.1 mph - N/A   Unknown
3:35 AM 64.4 °F 64.4 °F 100% 30.07 in 10.0 mi NE 10.4 mph - N/A   Scattered Clouds
3:55 AM 64.4 °F 64.4 °F 100% 30.06 in 10.0 mi NE 9.2 mph 17.3 mph N/A   Unknown
4:15 AM 64.4 °F 62.6 °F 94% 30.07 in 10.0 mi NE 11.5 mph 18.4 mph N/A   Unknown
4:35 AM 62.6 °F 59.0 °F 88% 30.09 in 10.0 mi NE 12.7 mph 19.6 mph N/A   Unknown
4:55 AM 62.6 °F 62.6 °F 100% 30.09 in 10.0 mi NE 10.4 mph 19.6 mph N/A   Unknown
5:15 AM 62.6 °F 62.6 °F 100% 30.09 in 10.0 mi ENE 9.2 mph 17.3 mph N/A   Unknown
5:35 AM 62.6 °F 62.6 °F 100% 30.09 in 10.0 mi ENE 9.2 mph 18.4 mph N/A   Clear
5:55 AM 62.6 °F 62.6 °F 100% 30.10 in 10.0 mi ENE 8.1 mph - N/A   Partly Cloudy
6:15 AM 62.6 °F 62.6 °F 100% 30.10 in 10.0 mi ENE 6.9 mph - N/A   Partly Cloudy
6:35 AM 60.8 °F 60.8 °F 100% 30.10 in 10.0 mi ENE 8.1 mph - N/A   Unknown
6:55 AM 60.8 °F 60.8 °F 100% 30.10 in 10.0 mi ENE 6.9 mph - N/A   Unknown
7:15 AM 60.8 °F 60.8 °F 100% 30.11 in 10.0 mi ENE 8.1 mph - N/A   Unknown
7:35 AM 60.8 °F 59.0 °F 94% 30.12 in 10.0 mi ENE 8.1 mph - N/A   Overcast
7:55 AM 60.8 °F 59.0 °F 94% 30.12 in 10.0 mi NE 6.9 mph - N/A   Scattered Clouds
8:15 AM 59.0 °F 59.0 °F 100% 30.13 in 10.0 mi ENE 9.2 mph - N/A   Clear
8:35 AM 60.8 °F 59.0 °F 94% 30.13 in 10.0 mi ENE 6.9 mph - N/A   Clear
8:55 AM 60.8 °F 59.0 °F 94% 30.13 in 10.0 mi ENE 9.2 mph - N/A   Clear
9:15 AM 62.6 °F 59.0 °F 88% 30.13 in 10.0 mi ENE 10.4 mph - N/A   Partly Cloudy
9:35 AM 64.4 °F 59.0 °F 83% 30.13 in 10.0 mi ENE 9.2 mph - N/A   Clear
9:55 AM 66.2 °F 57.2 °F 73% 30.14 in 10.0 mi ENE 10.4 mph 18.4 mph N/A   Mostly Cloudy
10:15 AM 66.2 °F 55.4 °F 68% 30.15 in 10.0 mi ENE 9.2 mph 17.3 mph N/A   Mostly Cloudy
10:35 AM 68.0 °F 57.2 °F 68% 30.15 in 10.0 mi ENE 9.2 mph - N/A   Mostly Cloudy
10:55 AM 68.0 °F 57.2 °F 68% 30.14 in 10.0 mi ENE 9.2 mph 17.3 mph N/A   Scattered Clouds
11:15 AM 71.6 °F 55.4 °F 57% 30.13 in 10.0 mi ENE 12.7 mph 21.9 mph N/A   Clear
11:35 AM 71.6 °F 57.2 °F 60% 30.14 in 10.0 mi ENE 9.2 mph 19.6 mph N/A   Clear
11:55 AM 73.4 °F 53.6 °F 50% 30.14 in 10.0 mi East 17.3 mph 28.8 mph N/A   Clear
12:15 PM 73.4 °F 53.6 °F 50% 30.14 in 10.0 mi East 12.7 mph 25.3 mph N/A   Clear
12:35 PM 71.6 °F 53.6 °F 53% 30.14 in 10.0 mi East 15.0 mph 24.2 mph N/A   Clear
12:55 PM 71.6 °F 53.6 °F 53% 30.14 in 10.0 mi East 13.8 mph 20.7 mph N/A   Clear
1:15 PM 69.8 °F 53.6 °F 56% 30.13 in 10.0 mi East 12.7 mph 19.6 mph N/A   Clear
1:35 PM 69.8 °F 51.8 °F 53% 30.12 in 10.0 mi East 13.8 mph 18.4 mph N/A   Clear
1:55 PM 68.0 °F 55.4 °F 64% 30.11 in 10.0 mi East 11.5 mph - N/A Thunderstorm Clear
2:15 PM 68.0 °F 59.0 °F 73% 30.12 in 10.0 mi ESE 12.7 mph - N/A Rain Light Rain
2:35 PM 68.0 °F 59.0 °F 73% 30.14 in 10.0 mi SE 12.7 mph 18.4 mph N/A   Mostly Cloudy
2:55 PM 66.2 °F 59.0 °F 78% 30.15 in 10.0 mi ESE 12.7 mph - N/A   Overcast
3:15 PM 64.4 °F 62.6 °F 94% 30.15 in 10.0 mi ESE 10.4 mph - N/A Rain Light Rain
3:35 PM 64.4 °F 60.8 °F 88% 30.14 in 10.0 mi East 11.5 mph 19.6 mph N/A Rain Light Rain
3:55 PM 62.6 °F 62.6 °F 100% 30.16 in 10.0 mi East 8.1 mph - 0.02 in Rain , Thunderstorm Light Rain
4:15 PM 62.6 °F 62.6 °F 100% 30.17 in 3.0 mi ENE 4.6 mph - 0.03 in Rain Rain
4:35 PM 62.6 °F 62.6 °F 100% 30.17 in 2.5 mi ENE 5.8 mph - 0.21 in Rain , Thunderstorm Rain
4:55 PM 60.8 °F 60.8 °F 100% 30.18 in 1.5 mi NE 4.6 mph - 0.28 in Rain , Thunderstorm Rain
5:15 PM 60.8 °F 60.8 °F 100% 30.22 in 1.0 mi North 8.1 mph - 0.16 in Rain , Thunderstorm Heavy Rain
5:35 PM 59.0 °F 59.0 °F 100% 30.18 in 1.2 mi NE 12.7 mph 19.6 mph 0.65 in Rain , Thunderstorm Heavy Thunderstorms and Rain
5:55 PM 59.0 °F 59.0 °F 100% 30.16 in 9.0 mi ENE 11.5 mph 21.9 mph 0.87 in Rain , Thunderstorm Light Thunderstorms and Rain
6:15 PM 59.0 °F 59.0 °F 100% 30.15 in 10.0 mi East 11.5 mph 19.6 mph N/A   Scattered Clouds
6:35 PM 59.0 °F 59.0 °F 100% 30.15 in 10.0 mi East 11.5 mph 17.3 mph N/A Rain Light Rain
6:55 PM 59.0 °F 59.0 °F 100% 30.14 in 10.0 mi ENE 10.4 mph 19.6 mph N/A   Overcast
7:15 PM 59.0 °F 59.0 °F 100% 30.13 in 10.0 mi East 11.5 mph 17.3 mph N/A   Overcast
7:35 PM 59.0 °F 59.0 °F 100% 30.13 in 10.0 mi East 8.1 mph 17.3 mph N/A   Overcast
7:55 PM 59.0 °F 59.0 °F 100% 30.12 in 10.0 mi East 9.2 mph - N/A   Overcast
8:15 PM 59.0 °F 59.0 °F 100% 30.13 in 10.0 mi East 8.1 mph - N/A   Mostly Cloudy
8:35 PM 59.0 °F 59.0 °F 100% 30.11 in 10.0 mi East 8.1 mph - N/A   Mostly Cloudy
8:55 PM 59.0 °F 59.0 °F 100% 30.11 in 10.0 mi East 8.1 mph - N/A   Overcast
9:15 PM 59.0 °F 59.0 °F 100% 30.10 in 10.0 mi East 8.1 mph - N/A   Overcast
9:35 PM 59.0 °F 59.0 °F 100% 30.10 in 10.0 mi East 5.8 mph - N/A   Overcast
9:55 PM 59.0 °F 59.0 °F 100% 30.11 in 10.0 mi East 9.2 mph - N/A   Overcast
10:15 PM 59.0 °F 59.0 °F 100% 30.11 in 10.0 mi East 9.2 mph - N/A   Overcast
10:35 PM 59.0 °F 59.0 °F 100% 30.10 in 10.0 mi East 6.9 mph - N/A   Overcast
10:55 PM 59.0 °F 59.0 °F 100% 30.10 in 10.0 mi East 8.1 mph - N/A   Mostly Cloudy
11:15 PM 59.0 °F 59.0 °F 100% 30.09 in 10.0 mi East 9.2 mph - N/A   Partly Cloudy
11:35 PM 59.0 °F 59.0 °F 100% 30.09 in 10.0 mi East 9.2 mph - N/A   Partly Cloudy
11:55 PM 59.0 °F 59.0 °F 100% 30.09 in 10.0 mi East 6.9 mph - N/A   Mostly Cloudy